TIME,DELAY(SENSOR),PRES,T(CTD),SAL,OXYGEN,RAWTEMP,T(OPTODE),TCPHASE,TURBIDITY,TURBIDITY_GAIN,FLUOR,BETA,CDOM,ED411.5,ED443.8,ED489.6,PAR,COMP,TILT,TILTY(TILT),CHECK
1341472353,6466,260.2900085449219000,4.8687000274658200,34.9653015136718750,335.4172973632812500,762.7308959960938000,4.8406620025634770,34.6330108642578100,16,3,50,114,64,2147245915,2147561434,2147570353,2147363162,1697,0,-12,14870
1341472415,6468,256.8699951171875000,4.8934998512268070,34.9674987792968750,334.3474121093750000,762.1082153320312000,4.8624730110168460,34.6588783264160160,16,3,50,118,66,2147245499,2147558536,2147571003,2147363176,1276,0,-10,46930
1341472477,6469,253.4900054931640600,4.9011998176574710,34.9673004150390600,333.8859863281250000,761.8259887695312000,4.8723530769348145,34.6694107055664060,16,3,50,124,66,2147244653,2147558468,2147571003,2147361032,744,0,-12,10436
1341472539,6467,250.0899963378906200,4.9341001510620120,34.9706001281738300,333.5235900878906000,760.8469848632812000,4.9066262245178220,34.6628799438476560,16,3,48,118,66,2147245224,2147558248,2147569526,2147360763,38,0,-12,55438
1341472601,6465,246.6499938964843800,4.9535999298095700,34.9720993041992200,332.9252929687500000,760.3698120117188000,4.9233298301696780,34.6748695373535160,16,3,50,122,67,2147244845,2147559547,2147566915,2147361777,2784,0,-11,9308
1341472663,6469,243.1799926757812500,4.9672999382019040,34.9735984802246100,332.7925109863281000,760.0109863281250000,4.9358839988708500,34.6721916198730500,16,3,48,115,67,2147243469,2147561791,2147569819,2147363556,2299,0,-12,24696
1341472725,6504,239.7299957275390600,4.9720997810363770,34.9743995666503900,333.0945129394531000,759.7576904296875000,4.9447479248046875,34.6564598083496100,16,3,50,118,66,2147248557,2147560054,2147570281,2147362070,1794,0,-11,16541
1341472787,6466,236.3300018310547000,4.9801001548767090,34.9738006591796900,333.6028137207031000,759.5673217773438000,4.9514060020446780,34.6344718933105500,16,3,50,120,66,2147244822,2147561933,2147567327,2147363423,1383,0,-12,24175
1341472849,6468,233.0099945068359400,4.9801998138427730,34.9735984802246100,334.1473999023437500,759.5305175781250000,4.9526958465576170,34.6144409179687500,16,3,49,115,66,2147245695,2147561832,2147571570,2147363689,975,0,-12,18334
1341472911,6468,229.6600036621093800,4.9878001213073730,34.9753990173339840,334.2150878906250000,759.2274169921875000,4.9632968902587890,34.6058883666992200,16,3,48,115,66,2147248352,2147562509,2147567789,2147359419,278,0,-12,39757
1341472974,6466,226.1600036621093800,5.0036001205444340,34.9762001037597660,332.8294982910156000,758.8820190429688000,4.9753780364990230,34.6484794616699200,16,3,50,126,66,2147243761,2147559679,2147568049,2147362907,3190,0,-11,56218
1341473036,6465,222.8300018310547000,5.0000000000000000,34.9740982055664060,332.8898010253906000,758.9589233398438000,4.9726910591125490,34.6479682922363300,16,3,50,128,66,2147244630,2147561595,2147567963,2147359409,2525,0,-12,62051
1341473100,6466,219.3800048828125000,5.0153999328613280,34.9747009277343750,334.2204895019531000,758.5512695312500000,4.9869461059570310,34.5924911499023440,16,3,50,124,64,2147241512,2147558939,2147568561,2147363185,2034,0,-12,54171
1341473162,6467,216.0599975585937500,5.0223999023437500,34.9742012023925800,334.8517150878906000,758.3439941406250000,4.9941921234130860,34.5654983520507800,16,3,50,122,66,2147244059,2147558532,2147569261,2147359812,1643,0,-12,50331
1341473226,6468,212.6900024414062500,5.0227999687194820,34.9747009277343750,335.1913146972656000,758.2346801757812000,4.9980130195617680,34.5513496398925800,16,3,49,116,65,2147241174,2147560804,2147570504,2147363126,1254,0,-12,36077
1341473291,6468,209.3099975585937500,5.0320000648498535,34.9749984741210940,335.4060058593750000,758.0512695312500000,5.0044250488281250,34.5404586791992200,16,3,50,118,66,2147240182,2147559168,2147569256,2147361073,677,0,-12,41316
1341473354,6468,206.0200042724609400,5.0689001083374020,34.9789009094238300,335.6182861328125000,757.0927124023438000,5.0379309654235840,34.5138511657714840,74,3,50,120,65,2147244690,2147561476,2147572296,2147364177,65,0,-12,6573
1341473415,6469,202.9799957275390600,5.1059999465942380,34.9818000793457000,335.6236877441406000,756.1177978515625000,5.0719928741455080,34.4943809509277340,16,3,50,120,65,2147243679,2147557965,2147570381,2147361910,2992,0,-12,57892
1341473478,6468,199.8899993896484400,5.1019001007080080,34.9813995361328100,336.1113891601562500,756.0100708007812000,5.0757541656494140,34.4746513366699200,12,3,50,118,65,2147243144,2147558728,2147569901,2147360982,2509,0,-12,33092
1341473539,6469,196.9299926757812500,5.1128001213073730,34.9818992614746100,336.5414123535156000,755.9536132812500000,5.0777277946472170,34.4584999084472660,16,3,50,120,64,2147241718,2147559711,2147570879,2147360644,2145,0,-12,65100
1341473602,6468,193.9199981689453000,5.0879001617431640,34.9774017333984400,337.3658142089844000,756.3505859375000000,5.0638599395751950,34.4372291564941400,16,3,50,119,64,2147244858,2147557649,2147572771,2147360717,1688,0,-12,10488
1341473663,6465,191.0200042724609400,5.0954999923706055,34.9766998291015600,338.0899963378906000,756.2647705078125000,5.0668559074401855,34.4100914001464840,16,3,50,132,65,2147244566,2147560187,2147573581,2147361106,1333,0,-12,57388
1341473726,6469,187.9799957275390600,5.1065998077392580,34.9772987365722660,338.3678894042969000,755.9201049804688000,5.0788969993591310,34.3937797546386700,16,3,50,121,64,2147244594,2147558870,2147573201,2147364854,885,0,-12,38030
1341473787,6466,185.0500030517578000,5.1305999755859375,34.9793014526367200,338.5342102050781000,755.2061767578125000,5.1038298606872560,34.3738288879394500,16,3,50,124,64,2147244959,2147561892,2147571620,2147361841,227,0,-12,39150
1341473850,6467,182.0099945068359400,5.2009000778198240,34.9874000549316400,337.8721008300781000,753.4589233398438000,5.1648178100585940,34.3625297546386700,16,3,50,115,66,2147243780,2147559286,2147571592,2147362550,3419,0,-12,6354
1341473911,6468,179.1600036621093800,5.2174000740051270,34.9889984130859400,337.4718017578125000,752.9821777343750000,5.1814498901367190,34.3671989440918000,28,3,50,117,64,2147240602,2147559519,2147571446,2147360662,2861,0,-12,8810
1341473974,6467,176.3000030517578000,5.2263998985290530,34.9908981323242200,336.9914855957031000,752.5828857421875000,5.1953749656677250,34.3761100769043000,16,3,50,115,66,2147242345,2147561997,2147570495,2147363072,2454,0,-12,18127
1341474035,6469,173.6399993896484400,5.2446999549865720,34.9930000305175800,336.3517150878906000,752.0159912109375000,5.2151470184326170,34.3875389099121100,16,3,49,115,65,2147242097,2147560484,2147572268,2147359492,2115,0,-12,39516
1341474098,6503,170.9400024414062500,5.2434000968933105,34.9911003112793000,336.5763854980469000,751.9962158203125000,5.2158360481262210,34.3790206909179700,16,3,50,123,65,2147243721,2147558966,2147571638,2147360781,1788,0,-12,31720
1341474159,6465,168.4199981689453000,5.2294998168945310,34.9894981384277340,336.5895080566406000,752.4556274414062000,5.1998162269592285,34.3877296447753900,16,3,50,130,64,2147241376,2147558948,2147576817,2147361160,1521,0,-12,58315
1341474222,6468,165.8800048828125000,5.2691001892089840,34.9921989440918000,335.8916931152344000,751.3563232421875000,5.2381501197814940,34.3907508850097660,16,3,50,117,66,2147242390,2147559744,2147573389,2147360493,1054,0,-12,15542
1341474283,6467,163.5200042724609400,5.2846999168396000,34.9948005676269500,335.3857116699219000,750.9055786132812000,5.2538571357727050,34.3997306823730500,16,3,50,116,66,2147242715,2147558902,2147576484,2147362148,668,0,-12,22431
1341474374,6468,159.2400054931640600,5.2834000587463380,34.9920997619628900,335.1015930175781000,750.8558959960938000,5.2555899620056150,34.4089889526367200,16,3,49,133,64,2147244059,2147557723,2147574175,2147361983,3193,0,-12,47297
1341474435,6503,155.5599975585937500,5.2809000015258790,34.9911003112793000,335.3569030761719000,750.9224243164062000,5.2532749176025390,34.4013099670410160,51,3,50,132,64,2147238486,2147557856,2147576411,2147360946,2667,0,-12,59102
1341474498,6466,151.6799926757812500,5.2951002120971680,34.9920005798339840,334.9576110839844000,750.5386962890625000,5.2666440010070800,34.4078102111816400,16,3,50,134,64,2147239852,2147562299,2147577987,2147362559,2268,0,-12,60437
1341474559,6466,147.9499969482422000,5.3203001022338870,34.9929008483886700,334.1856994628906000,749.8461303710938000,5.2907791137695310,34.4214897155761700,16,3,50,129,65,2147245521,2147559515,2147578724,2147360100,1892,0,-12,30983
1341474647,6467,143.1199951171875000,5.3447999954223630,34.9939994812011700,333.4180908203125000,749.1384277343750000,5.3154258728027340,34.4348106384277340,16,3,48,131,65,2147240210,2147563112,2147580630,2147362289,1478,0,-12,49368
1341474708,6465,140.5000000000000000,5.3484001159667970,34.9945983886718750,333.6846008300781000,749.0083007812500000,5.3199582099914550,34.4230308532714840,16,3,50,130,66,2147245544,2147559414,2147580387,2147364191,1211,0,-12,57360
1341474771,6468,137.8399963378906200,5.3429999351501465,34.9919013977050800,333.9410095214844000,749.0733032226562000,5.3176960945129395,34.4149093627929700,16,3,48,138,65,2147242948,2147561050,2147582659,2147364730,910,0,-12,60128
1341474832,6467,135.1900024414062500,5.3302001953125000,34.9872016906738300,335.5404968261719000,749.4196166992188000,5.3056340217590330,34.3652801513671900,16,3,50,129,64,2147239190,2147560009,2147583935,2147362395,542,0,-12,34524
1341474895,6469,132.5200042724609400,5.2582001686096190,34.9756011962890600,338.1737060546875000,751.1854248046875000,5.2441058158874510,34.3074607849121100,16,3,51,122,64,2147245238,2147558851,2147584274,2147363446,3508,0,-12,15500
1341474956,6469,129.9199981689453000,5.3115000724792480,34.9788017272949200,340.3270874023437500,750.0375976562500000,5.2841048240661620,34.2096595764160160,16,3,52,120,63,2147243565,2147561037,2147589005,2147364772,3094,0,-12,65236
1341475019,6505,127.2600021362304700,5.4127001762390140,34.9901008605957000,340.3898010253906000,747.3590698242188000,5.3773732185363770,34.1549987792968750,16,3,52,123,64,2147243103,2147560095,2147591940,2147365567,2693,0,-12,43661
1341475080,6467,124.7200012207031200,5.4828000068664550,34.9973983764648440,339.9820861816406000,745.3952026367188000,5.4456920623779300,34.1310882568359400,16,3,52,138,65,2147242212,2147559940,2147593567,2147360968,2444,0,-12,61550
1341475143,6468,122.0800018310546900,5.5423998832702640,35.0060005187988300,338.9646911621094000,743.7086181640625000,5.5043220520019530,34.1335296630859400,16,3,50,127,64,2147242028,2147562408,2147596891,2147363012,2199,0,-12,7774
1341475204,6468,119.5400009155273400,5.5500998497009280,35.0052986145019500,339.0416870117187500,743.3308715820312000,5.5174407958984375,34.1236114501953100,19,3,50,139,64,2147242244,2147562596,2147601654,2147363574,1943,0,-12,17345
1341475267,6502,116.9899978637695300,5.5503001213073730,35.0054016113281250,339.4436035156250000,743.1732788085938000,5.5229167938232420,34.1067695617675800,16,3,50,133,64,2147244027,2147564090,2147605915,2147365635,1749,0,-12,49570
1341475328,6466,114.5599975585937500,5.5588998794555660,35.0051994323730500,339.7883911132812500,742.9296264648438000,5.5313820838928220,34.0899696350097660,44,3,50,139,64,2147243158,2147564137,2147608018,2147365969,1544,0,-12,412
1341475416,6468,110.4599990844726600,5.5900998115539550,35.0073013305664060,339.6336059570312500,742.0280761718750000,5.5626931190490720,34.0778083801269500,15,3,51,141,64,2147242774,2147566065,2147615638,2147366216,1120,0,-12,27420
1341475477,6468,106.7799987792968800,5.6617999076843260,35.0131988525390600,338.5046081542969000,739.9539184570312000,5.6346859931945800,34.0772781372070300,16,3,50,159,65,2147246637,2147567084,2147624269,2147366938,711,0,-12,11513
1341475540,6468,103.0400009155273400,5.6827998161315920,35.0127983093261700,338.3139953613281000,739.4127197265625000,5.6534581184387210,34.0733108520507800,14,3,50,136,65,2147240287,2147568877,2147632187,2147370344,3586,0,-12,31838
1341475601,6467,99.4700012207031200,5.6967000961303710,35.0124015808105500,339.0479125976562500,738.9003295898438000,5.6712279319763180,34.0379905700683600,16,3,50,143,64,2147244429,2147570688,2147642920,2147371084,3257,0,-12,33960
1341475664,6465,95.8199996948242200,5.7098999023437500,35.0091018676757800,339.3068847656250000,738.7042236328125000,5.6780300140380860,34.0251617431640600,15,3,52,135,64,2147244891,2147570422,2147655007,2147374326,2609,0,-12,62375
1341475725,6467,92.2300033569336000,5.7248001098632810,35.0065002441406250,339.8360900878906000,738.1774291992188000,5.6962947845458980,33.9965095520019500,15,3,52,141,64,2147244607,2147580612,2147670628,2147375606,2388,0,-12,26106
1341475788,6469,88.6299972534179700,5.7203001976013180,34.9976005554199200,339.0802001953125000,737.9359130859375000,5.7046699523925780,34.0181388854980500,14,3,55,152,65,2147240891,2147581247,2147688200,2147380570,2003,0,-12,8593
1341475849,6467,85.2099990844726600,5.8498001098632810,35.0093994140625000,338.5274047851562500,734.5465698242188000,5.8220729827880860,33.9725112915039060,16,3,56,147,64,2147246596,2147585946,2147714198,2147383739,1700,0,-12,52446
1341475912,6467,81.6900024414062500,5.9075999259948730,35.0153999328613300,343.6955871582031000,732.8712158203125000,5.8800449371337890,33.7621688842773440,20,3,57,148,64,2147246440,2147591661,2147738038,2147390377,1578,0,-12,19840
1341475973,6468,78.4199981689453100,5.9649000167846680,35.0154991149902340,343.5358886718750000,731.4459838867188000,5.9293332099914550,33.7407302856445300,16,3,56,155,64,2147248872,2147599153,2147766198,2147396502,1228,0,-12,45376
1341476036,6468,75.0699996948242200,5.9987001419067380,35.0153999328613300,344.4314880371094000,730.3416137695312000,5.9675049781799320,33.6892395019531250,15,3,58,150,64,2147248082,2147606514,2147801091,2147403784,645,0,-12,2184
1341476097,6467,71.9400024414062500,6.0423002243041990,35.0167999267578100,346.2138977050781000,729.0338134765625000,6.0126819610595700,33.6039810180664060,14,3,58,153,64,2147253562,2147612959,2147834495,2147410852,57,0,-12,49548
1341476160,6468,68.8399963378906200,6.0794000625610350,35.0173988342285160,346.9464111328125000,727.8878784179688000,6.0522518157958980,33.5576896667480500,18,3,60,157,64,2147261092,2147630820,2147877896,2147419373,3171,0,-12,60871
1341476221,6502,65.8700027465820300,6.0935997962951660,35.0112991333007800,350.1626892089844000,727.3773193359375000,6.0698738098144530,33.4402313232421900,18,3,66,153,64,2147266993,2147642321,2147928804,2147434171,2681,0,-12,35107
1341476284,6466,62.8499984741210940,6.1189999580383300,35.0117988586425800,352.7106933593750000,726.7520141601562000,6.0914540290832520,33.3438110351562500,23,3,68,158,64,2147271048,2147658924,2147985494,2147453398,2468,0,-11,28525
1341476345,6467,60.0200004577636700,6.1325001716613770,35.0093994140625000,353.3800048828125000,726.5126953125000000,6.0997099876403810,33.3171195983886700,16,3,73,157,64,2147278038,2147678056,2148047775,2147469864,2024,0,-10,5689
1341476408,6469,57.1100006103515600,6.1570000648498535,35.0043983459472660,354.5505981445312500,725.3842163085938000,6.1386380195617680,33.2574081420898440,18,3,88,188,64,2147288018,2147708420,2148131583,2147498884,1579,0,-12,18546
1341476469,6467,54.3199996948242200,6.1645002365112305,35.0008010864257800,355.9023132324219000,725.2946166992188000,6.1417241096496580,33.2115211486816400,20,3,92,195,64,2147302966,2147736740,2148220035,2147528178,1361,0,-11,47714
1341476532,6470,51.5099983215332000,6.1579999923706055,34.9906005859375000,357.3265991210937500,725.3800048828125000,6.1387810707092285,33.1665611267089840,27,3,101,213,65,2147328964,2147770747,2148317704,2147558687,912,0,-12,29938
1341476593,6468,48.7999992370605500,6.1847000122070310,34.9868011474609400,357.7850036621094000,723.5499267578125000,6.2018680572509770,33.1173210144043000,21,3,110,211,64,2147357183,2147811007,2148434970,2147598655,516,0,-12,2614
1341476656,6467,46.1500015258789060,6.2561998367309570,34.9719009399414060,359.1336059570312500,722.5717773437500000,6.2355690002441410,33.0557594299316400,26,3,133,226,65,2147391231,2147867474,2148583171,2147655350,79,0,-12,51093
1341476717,6470,43.7700004577636700,6.3330998420715330,34.9743003845214840,359.4536132812500000,720.3162841796875000,6.3132247924804690,33.0035896301269500,27,3,138,228,64,2147427089,2147916726,2148707291,2147705421,3081,0,-11,24449
1341476807,6505,39.7299995422363300,6.7108001708984375,34.9637985229492200,358.9614868164062500,711.5546875000000000,6.6142201423645020,32.8584098815918000,45,3,239,359,64,2147563903,2148089540,2149139762,2147878363,2670,0,-12,8942
1341476868,6470,36.5000000000000000,6.8454999923706055,34.9095993041992200,364.3818969726562500,705.0112304687500000,6.8383288383483890,32.5663681030273440,56,3,445,446,66,2147752991,2148334413,2149686152,2148082394,2116,0,-10,60897
1341476931,6470,33.2799987792968750,7.2836999893188480,34.9113998413085940,367.4880981445312500,694.5200195312500000,7.1964468955993650,32.2808189392089840,81,3,544,555,64,2148155190,2148818897,2150702596,2148470742,1423,0,-11,27704
1341476992,6469,30.3199996948242200,7.8607997894287110,34.9765014648437500,370.5237121582031000,678.8092041015625000,7.7300257682800290,31.9113597869873050,98,3,624,758,64,2148792877,2149573224,2152135537,2149031807,775,0,-12,60521
1341477055,6470,27.2800006866455080,8.1195001602172850,34.9823989868164060,377.4786987304687500,669.0964965820312000,8.0583171844482420,31.5330104827880860,110,3,755,747,65,2149879496,2150801562,2154266774,2149881494,148,0,-12,45230
1341477116,6471,24.4099998474121100,8.3156995773315430,34.9813995361328100,386.0470886230469000,662.5828857421875000,8.2778167724609380,31.1693000793457030,100,3,668,743,64,2151402628,2152441215,2156912777,2150986879,3429,0,-11,4377
1341477179,6505,21.5000000000000000,8.5944004058837890,34.9768981933593750,391.9613037109375000,655.3170166015625000,8.5220546722412110,30.8772106170654300,87,3,668,645,62,2153895688,2155081892,2160859524,2152707634,2481,0,-11,59574
1341477240,6505,18.6200008392334000,9.3726997375488280,34.9725990295410160,392.5889892578125000,633.2781982421875000,9.2590179443359380,30.4985504150390620,84,3,630,532,62,2157232465,2158618239,2165685353,2154932877,2661,0,-12,48251
1341477303,6471,16.3799991607666000,10.3247003555297850,34.9686012268066400,387.4761962890625000,604.9326782226562000,10.1987495422363280,30.1935005187988280,75,3,720,537,62,2160181667,2161810509,2169815066,2156868676,2958,1,-11,40149
1341477364,6469,15.6599998474121100,10.6142997741699220,34.9756011962890600,384.2551879882812500,596.4849853515625000,10.4771299362182620,30.1541309356689450,74,3,743,521,63,2161000557,2162702088,2170922838,2157404429,3074,0,-11,32373
1341477514,6470,13.5100002288818360,10.9644002914428710,34.9808998107910160,372.5790100097656000,582.2999877929688000,10.9429197311401370,30.2764396667480470,83,3,696,520,62,2167137805,2169388045,2178875043,2161283537,383,0,-10,7129
1341477593,6470,11.3000001907348630,11.0051002502441400,34.9837989807128900,370.6095886230469000,580.5961914062500000,10.9987297058105470,30.3087806701660160,80,3,597,543,58,2175785915,2178525740,2188286294,2166351968,513,0,-12,18400
1341477667,6469,7.8200001716613770,11.7079000473022460,34.9844017028808600,359.3486022949219000,560.1262207031250000,11.6670303344726560,30.3387203216552730,79,3,426,485,59,2192295634,2196070436,2205922436,2177263409,3414,6,-11,51910
1341477721,6469,5.4299998283386230,11.7180995941162110,34.9922981262207000,353.9609985351562500,558.6663818359375000,11.7145395278930660,30.4840507507324220,80,3,353,485,59,2205873151,2210320210,2219482920,2187515597,3276,1,-7,13090
1341477769,6466,3.3399999141693115,11.7242002487182620,34.9931983947753900,352.2388916015625000,558.3148803710938000,11.7259798049926760,30.5325393676757800,73,3,289,449,57,2222636483,2227780685,2235665252,2203660164,820,-3,-9,34334
1341477816,6469,2.2899999618530273,0.0000000000000000,0.0000000000000000,351.6895141601562500,558.2457885742188000,11.7282304763793950,30.5488796234130860,76,3,257,468,57,2232512452,2238027094,2244582948,2214267185,149,5,-12,10903
1341477852,6470,0.8000000119209290,0.0000000000000000,0.0000000000000000,351.3752136230469000,558.1677246093750000,11.7307701110839840,30.5577507019042970,79,3,223,480,56,2241889293,2248455126,2251927478,2232001096,386,34,-8,39477
